Estació meteorològica de Susqueda - Presa de (La Selva, Susqueda)

Consulta les dades en temps real de l'estació meteorològica de Susqueda - Presa de





Hora UTC 10:55
Temperatura 18.2 ºC
Humitat 57.0 %
Pressió 1012.6 hPa
Pluja 0.0 mm
Velocitat vent 0.0 km/h
Direcció vent SW

Webcam

Dades diàries 2026-05-08



Hora UTC (hivern +1h; estiu +2h)
Temperatura (ºC) Humitat (%) Pressió (hPa) Velocitat vent (km/h) Precipitació (mm)
Hora UTC Aire Humitat Pressió Vel. Dir. Vel. Max Dir. Intent. màx 5 min.
00:05 12.0 85.0 1012.2 0.0 W 0.0 0.0
00:10 12.1 85.0 1012.1 0.0 SW 1.6 0.0
00:15 12.1 86.0 1012.2 0.0 WSW 1.6 0.0
00:20 11.9 86.0 1012.0 0.0 WNW 1.6 0.0
00:25 11.9 86.0 1012.0 0.0 W 0.0 0.0
00:30 11.7 86.0 1012.0 0.0 W 0.0 0.0
00:35 11.3 86.0 1012.0 0.0 WNW 0.0 0.0
00:40 11.2 86.0 1012.0 0.0 WNW 1.6 0.0
00:45 11.3 87.0 1012.0 0.0 W 0.0 0.0
00:50 11.2 87.0 1012.1 0.0 WNW 0.0 0.0
00:55 11.3 87.0 1012.0 0.0 W 0.0 0.0
01:00 11.5 87.0 1012.0 0.0 WSW 0.0 0.0
01:05 11.5 87.0 1012.0 0.0 W 0.0 0.0
01:10 11.4 87.0 1012.0 0.0 WSW 0.0 0.0
01:15 11.4 87.0 1011.9 0.0 W 0.0 0.0
01:20 11.3 87.0 1011.9 0.0 WNW 0.0 0.0
01:25 11.3 87.0 1011.7 0.0 W 1.6 0.0
01:30 11.3 88.0 1011.8 0.0 WNW 1.6 0.0
01:35 11.3 87.0 1011.6 0.0 W 1.6 0.0
01:40 11.3 88.0 1011.7 0.0 W 0.0 0.0
01:45 11.4 88.0 1011.6 0.0 W 0.0 0.0
01:50 11.4 88.0 1011.7 0.0 W 6.4 0.0
01:55 11.3 88.0 1011.7 0.0 W 6.4 0.0
02:00 11.4 88.0 1011.7 0.0 W 1.6 0.0
02:05 11.6 88.0 1011.6 0.0 WSW 1.6 0.0
02:10 11.4 88.0 1011.5 0.0 W 6.4 0.0
02:15 11.2 88.0 1011.6 0.0 WSW 9.7 0.0
02:20 11.3 88.0 1011.6 0.0 W 4.8 0.0
02:25 11.3 88.0 1011.5 0.0 W 4.8 0.0
02:30 11.2 88.0 1011.5 0.0 W 1.6 0.0
02:35 11.2 88.0 1011.5 0.0 W 9.7 0.0
02:40 11.3 88.0 1011.5 9.7 W 11.3 0.0
02:45 11.3 88.0 1011.5 0.0 WSW 11.3 0.0
02:50 11.4 88.0 1011.4 0.0 W 9.7 0.0
02:55 11.3 87.0 1011.4 0.0 W 9.7 0.0
03:00 11.4 87.0 1011.4 0.0 W 11.3 0.0
03:05 11.4 87.0 1011.5 0.0 WNW 11.3 0.0
03:10 11.3 87.0 1011.3 0.0 WSW 11.3 0.0
03:15 11.3 87.0 1011.3 0.0 WSW 11.3 0.0
03:20 11.4 88.0 1011.2 6.4 WSW 11.3 0.0
03:25 11.3 87.0 1011.2 4.8 W 11.3 0.0
03:30 11.1 87.0 1011.2 0.0 W 11.3 0.0
03:35 11.0 87.0 1011.1 0.0 W 9.7 0.0
03:40 10.9 88.0 1011.2 0.0 W 8.0 0.0
03:45 10.9 88.0 1011.2 0.0 W 8.0 0.0
03:50 10.8 88.0 1011.2 0.0 W 6.4 0.0
03:55 10.7 87.0 1011.2 0.0 W 0.0 0.0
04:00 10.7 88.0 1011.2 0.0 WSW 11.3 0.0
04:05 10.8 87.0 1011.3 9.7 W 11.3 0.0
04:10 10.8 87.0 1011.4 0.0 W 11.3 0.0
04:15 10.4 88.0 1011.4 0.0 W 6.4 0.0
04:20 10.3 88.0 1011.4 0.0 W 9.7 0.0
04:25 10.4 88.0 1011.5 0.0 WNW 9.7 0.0
04:30 10.4 88.0 1011.6 0.0 WNW 0.0 0.0
04:35 10.4 88.0 1011.5 0.0 WNW 0.0 0.0
04:40 10.3 87.0 1011.5 0.0 W 1.6 0.0
04:45 10.3 88.0 1011.5 0.0 WSW 11.3 0.0
04:50 10.3 88.0 1011.6 0.0 WNW 11.3 0.0
04:55 10.1 88.0 1011.6 0.0 WNW 6.4 0.0
05:00 10.0 88.0 1011.8 0.0 WNW 1.6 0.0
05:05 9.9 88.0 1011.8 0.0 WNW 8.0 0.0
05:10 9.9 89.0 1011.9 8.0 WNW 8.0 0.0
05:15 10.1 88.0 1011.9 0.0 W 11.3 0.0
05:20 9.9 88.0 1011.9 0.0 WNW 11.3 0.0
05:25 9.9 89.0 1012.0 0.0 W 4.8 0.0
05:30 9.8 89.0 1012.1 0.0 WNW 4.8 0.0
05:35 9.8 89.0 1012.1 0.0 W 9.7 0.0
05:40 9.8 89.0 1012.2 0.0 WNW 9.7 0.0
05:45 9.8 89.0 1012.2 0.0 W 3.2 0.0
05:50 9.8 89.0 1012.3 0.0 W 8.0 0.0
05:55 9.8 89.0 1012.4 0.0 NNW 8.0 0.0
06:00 9.8 89.0 1012.4 0.0 W 6.4 0.0
06:05 9.8 89.0 1012.5 0.0 W 0.0 0.0
06:10 9.9 89.0 1012.5 0.0 WNW 0.0 0.0
06:15 9.9 89.0 1012.5 0.0 W 6.4 0.0
06:20 10.1 89.0 1012.5 0.0 W 6.4 0.0
06:25 10.3 88.0 1012.5 0.0 W 9.7 0.0
06:30 10.2 88.0 1012.6 0.0 WSW 9.7 0.0
06:35 10.2 88.0 1012.7 0.0 SW 1.6 0.0
06:40 10.2 88.0 1012.7 0.0 W 1.6 0.0
06:45 10.2 88.0 1012.6 0.0 W 1.6 0.0
06:50 10.2 89.0 1012.6 0.0 W 0.0 0.0
06:55 10.4 88.0 1012.7 0.0 W 0.0 0.0
07:00 10.4 88.0 1012.8 0.0 WNW 0.0 0.0
07:05 10.6 87.0 1012.8 0.0 WNW 0.0 0.0
07:10 10.7 87.0 1012.8 0.0 W 0.0 0.0
07:15 11.0 87.0 1012.8 0.0 WSW 0.0 0.0
07:20 11.1 87.0 1012.7 0.0 WSW 0.0 0.0
07:25 11.1 87.0 1012.7 0.0 WSW 0.0 0.0
07:30 11.3 87.0 1012.7 0.0 W 0.0 0.0
07:35 11.4 86.0 1012.7 0.0 W 0.0 0.0
07:40 11.6 86.0 1012.6 0.0 W 0.0 0.0
07:45 11.8 85.0 1012.6 0.0 WSW 0.0 0.0
07:50 12.1 85.0 1012.6 0.0 WSW 0.0 0.0
07:55 12.3 84.0 1012.6 0.0 WSW 0.0 0.0
08:00 12.6 84.0 1012.6 0.0 W 0.0 0.0
08:05 12.8 82.0 1012.5 0.0 W 0.0 0.0
08:10 13.1 81.0 1012.6 0.0 W 0.0 0.0
08:15 13.2 81.0 1012.6 0.0 WSW 0.0 0.0
08:20 13.4 81.0 1012.7 0.0 WSW 0.0 0.0
08:25 13.6 80.0 1012.6 0.0 WSW 0.0 0.0
08:30 13.7 80.0 1012.6 0.0 WSW 0.0 0.0
08:35 13.9 79.0 1012.6 0.0 WSW 0.0 0.0
08:40 14.3 76.0 1012.6 0.0 WSW 0.0 0.0
08:45 14.7 75.0 1012.6 0.0 WSW 0.0 0.0
08:50 15.1 74.0 1012.6 0.0 WSW 0.0 0.0
08:55 15.4 74.0 1012.6 0.0 WSW 0.0 0.0
09:00 16.3 73.0 1012.6 0.0 E 0.0 0.0
09:05 17.2 68.0 1012.6 0.0 ESE 3.2 0.0
09:10 18.1 68.0 1012.5 0.0 E 6.4 0.0
09:15 18.7 66.0 1012.4 0.0 NE 6.4 0.0
09:20 19.2 64.0 1012.5 0.0 E 1.6 0.0
09:25 19.2 65.0 1012.6 0.0 ENE 1.6 0.0
09:30 19.0 65.0 1012.6 0.0 SE 1.6 0.0
09:35 18.5 65.0 1012.7 0.0 NE 3.2 0.0
09:40 18.2 67.0 1012.8 0.0 ENE 3.2 0.0
09:45 18.0 67.0 1012.8 0.0 ENE 1.6 0.0
09:50 17.9 68.0 1012.8 1.6 E 4.8 0.0
09:55 17.9 67.0 1012.8 0.0 E 4.8 0.0
10:00 17.9 67.0 1012.8 0.0 E 4.8 0.0
10:05 18.1 67.0 1012.8 0.0 E 1.6 0.0
10:10 18.4 65.0 1012.8 0.0 E 0.0 0.0
10:15 18.6 63.0 1012.8 0.0 ENE 0.0 0.0
10:20 18.4 57.0 1012.7 0.0 E 0.0 0.0
10:25 18.7 60.0 1012.8 0.0 ESE 0.0 0.0
10:30 18.4 52.0 1012.8 0.0 N 6.4 0.0
10:35 18.3 53.0 1012.7 0.0 W 4.8 0.0
10:40 18.4 52.0 1012.6 0.0 NE 3.2 0.0
10:50 17.8 55.0 1012.6 0.0 SE 8.0 0.0
10:55 18.2 57.0 1012.6 0.0 SW 6.4 0.0
Màxima 19.2 89.0 1012.8 9.7 W 11.3 0.0
Mínima 9.8 52.0 1011.1
Total 0.0